Hourly Data Report for June 03, 2021

MANIWAKI AIRPORT
QUEBEC
Current Station Operator: ECCC - MSC

46°16'29.000" N
75°59'31.000" W
199.70 m
7034482
71721
WMJ

Download Data

Hourly Data (June 2021)
Hourly Data Report for June 3, 2021
TIME
LST
Temp Definition
°C
Dew Point Definition
°C
Rel Hum Definition
%
Precip. Amount Definition
mm

Wind Dir Definition
10's deg

Wind Spd Definition
km/h
Visibility Definition
km
Stn Press Definition
kPa
Hmdx Definition


Wind Chill Definition


Weather Definition


00:00 15.6 8.2 61 0.0 19 5   99.14     LegendNANA
01:00 13.8 7.5 65 0.0 17 9   99.10     LegendNANA
02:00 15.0 9.8 71 0.0 18 9   99.08     LegendNANA
03:00 13.9 10.5 80 0.0 18 6   99.04     LegendNANA
04:00 14.0 11.0 82 0.0 20 6   98.98     LegendNANA
05:00 13.6 11.6 88 0.0 19 6   98.98     LegendNANA
06:00 14.7 12.8 88 0.0 20 13   99.05     LegendNANA
07:00 14.5 13.4 94 0.7 18 8   99.03     LegendNANA
08:00 15.0 13.7 92 0.1 19 8   98.97     LegendNANA
09:00 15.8 14.2 90 0.0 17 5   98.91     LegendNANA
10:00 17.6 14.4 82 0.0 13 5   98.84     LegendNANA
11:00 18.2 13.8 76 0.0 18 7   98.83     LegendNANA
12:00 17.9 13.0 73 0.0 21 9   98.77     LegendNANA
13:00 19.7 13.7 68 0.0 20 10   98.69     LegendNANA
14:00 20.3 13.5 65 0.0 19 10   98.63     LegendNANA
15:00 21.0 13.5 62 0.0 20 12   98.55     LegendNANA
16:00 21.3 13.0 59 0.0 20 15   98.49     LegendNANA
17:00 21.6 13.3 59 0.0 21 15   98.43 25   LegendNANA
18:00 20.8 13.3 62 0.0 21 13   98.42     LegendNANA
19:00 19.8 13.8 68 0.0 22 10   98.42     LegendNANA
20:00 17.1 14.0 82 0.0 17 6   98.45     LegendNANA
21:00 15.8 14.0 89 0.0 18 5   98.47     LegendNANA
22:00 15.1 13.8 92 0.0 16 6   98.46     LegendNANA
23:00 16.7 14.8 88 0.0 30 11   98.59     LegendNANA

Notes on Data Quality.

Legend

  • E = Estimated
  • M = Missing
  • NA = Not Available*
  • [empty] = Indicates an unobserved value
Date modified: